This is the latest recevied weather packets stored in our database for station/object WD7OO. If no packets are shown the sender has not sent any weather packets the latest 10 day(s).
| Time | Temp. | Humidity | Pressure | Rain* | Wind** | Luminosity | Snow |
|---|---|---|---|---|---|---|---|
| 1778023572 | 11.11° C | 60% | 1009 hPa | 0 mm | - | 78 W/m² | - |
| 1778023270 | 11.11° C | 62% | 1009.2 hPa | 0 mm | - | 84 W/m² | - |
| 1778022966 | 11.11° C | 58% | 1009.2 hPa | 0 mm | - | 59 W/m² | - |
| 1778022665 | 11.11° C | 53% | 1009.4 hPa | 0 mm | - | 54 W/m² | - |
| 1778022363 | 11.11° C | 52% | 1009.4 hPa | 0 mm | - | 60 W/m² | - |
| 1778022058 | 11.11° C | 55% | 1009.2 hPa | 0 mm | - | 74 W/m² | - |
| 1778021755 | 10.56° C | 53% | 1009.2 hPa | 0 mm | - | 69 W/m² | - |
| 1778021451 | 10.56° C | 55% | 1009.8 hPa | 0 mm | - | 44 W/m² | - |
| 1778021148 | 10.56° C | 56% | 1009.5 hPa | 0 mm | - | 51 W/m² | - |
| 1778020846 | 10.56° C | 56% | 1009.6 hPa | 0 mm | - | 48 W/m² | - |
| 1778020543 | 10.56° C | 58% | 1009.5 hPa | 0 mm | - | 43 W/m² | - |
| 1778020239 | 10.56° C | 57% | 1009.4 hPa | 0 mm | - | 36 W/m² | - |
| 1778019935 | 10.56° C | 56% | 1009.4 hPa | 0 mm | - | 46 W/m² | - |
| 1778019631 | 10.56° C | 55% | 1009.5 hPa | 0 mm | - | 44 W/m² | - |
| 1778019329 | 10.56° C | 52% | 1009.4 hPa | 0 mm | - | 41 W/m² | - |
| 1778019025 | 10.56° C | 57% | 1009.3 hPa | 0 mm | - | 51 W/m² | - |
| 1778018722 | 10.56° C | 54% | 1009.8 hPa | 0 mm | - | 53 W/m² | - |
| 1778018420 | 10.56° C | 52% | 1009.5 hPa | 0 mm | - | 53 W/m² | - |
| 1778018118 | 11.11° C | 55% | 1009.5 hPa | 0 mm | - | 59 W/m² | - |
| 1778017816 | 11.11° C | 55% | 1009.5 hPa | 0 mm | - | 74 W/m² | - |
| 1778017514 | 11.11° C | 53% | 1009.6 hPa | 0 mm | - | 89 W/m² | - |
| 1778017210 | 11.11° C | 51% | 1009.5 hPa | 0 mm | - | 93 W/m² | - |
| 1778016908 | 11.11° C | 53% | 1009.5 hPa | 0 mm | - | 119 W/m² | - |
| 1778016604 | 11.11° C | 50% | 1009.6 hPa | 0 mm | - | 129 W/m² | - |
| 1778016301 | 11.11° C | 53% | 1009.6 hPa | 0 mm | - | 117 W/m² | - |
* Rain latest hour (hover to see other rain measurements)
** Current wind speed in m/s (hover to see current wind gust speed)